Voltar ao catálogo

BREEZE-M DEB

AtivoHEO
NORAD 32033·DEBRIS·🇷🇺 Russia

Lançado Feb 28, 2006 de Baikonur Cosmodrome

Loading…

Próximas Passagens (próximas 24 horas)

TLE

AtualizadoSource: Space-Track

Época: Sep 13, 2026, 17:39 UTC

1 32033U 06006L   26256.73603962  .00001006  00000-0  12745-2 0  9998
2 32033  51.6490  81.7859 5070842  87.0802 327.4376  5.30569431374223

Acompanhe BREEZE-M DEB em tempo real com AllMySat

Download on the App Store